Regional Weather Roundup
Issued by NWS

Home | Current Version | Previous Version | Graphics & Text | Print | Product List | Glossary On
Versions: 1 2 3 4 5 6 7 8 9 10 11 12 13 14 15 16 17 18 19 20 21 22 23 24 25 26 27
000
ASUS45 KBOI 161210
RWRID

IDAHO REGIONAL WEATHER ROUNDUP
NATIONAL WEATHER SERVICE BOISE ID
600 AM MDT WED AUG 16 2017

NOTE: "FAIR" INDICATES FEW OR NO CLOUDS BELOW 12000 FEET
WITH NO SIGNIFICANT WEATHER AND/OR OBSTRUCTIONS TO VISIBILITY

IDZ012-014-161300-
SOUTHWEST IDAHO


CITY           SKY/WX    TMP DP  RH WIND       PRES   REMARKS
BOISE          CLEAR     60  37  42 S8        29.96R
CALDWELL       CLEAR     60  42  51 W6        29.95R
MOUNTAIN HOME  PTCLDY    57  40  52 CALM      29.96R
$$

IDZ016-017-161300-
SOUTHCENTRAL IDAHO


CITY           SKY/WX    TMP DP  RH WIND       PRES   REMARKS
BURLEY         CLEAR     50  46  86 NE3       30.01R
JEROME         CLEAR     53  40  61 E7        30.01R
TWIN FALLS     CLEAR     58  36  43 SW12      30.01R
$$

IDZ019>023-161300-
SOUTHEAST IDAHO


CITY           SKY/WX    TMP DP  RH WIND       PRES   REMARKS
IDAHO FALLS    CLEAR     44  43  96 N3        30.07R
POCATELLO      CLEAR     46  39  76 CALM      30.05R
REXBURG        CLEAR     46  42  86 NE3       30.08R
$$

IDZ006-010-011-018-031-032-161300-
CENTRAL IDAHO MOUNTAINS


CITY           SKY/WX    TMP DP  RH WIND       PRES   REMARKS
MCCALL         CLEAR     45  36  70 CALM      30.06S
HAILEY         CLEAR     50  41  71 NW10      30.11R
STANLEY          N/A     34  28  79 CALM      30.18R
SALMON         PTCLDY    47  39  74 CALM      30.06R
CHALLIS        PTCLDY    49  38  65 CALM      30.09R
$$

IDZ002-004-006-007-026-161300-
NORTHERN IDAHO


CITY           SKY/WX    TMP DP  RH WIND       PRES   REMARKS
LEWISTON       CLEAR     59  37  44 S3        29.97R
LOWELL           N/A     52  44  74 N3        30.03R
COEUR D`ALENE  CLEAR     56  47  71 S8        29.99R
MULLAN PASS    CLEAR     51  27  39 NW3       30.11S
$$




USA.gov is the U.S. government's official web portal to all federal, state and local government web resources and services.